Wind_Speed
40 41 44 47 49 51 53 55 57 58 61 62 62 62 63 64 62 62 60 57 55 54 53 52 50 47 45 44 42 41 39 38 36 35 33 32 31 31 31 30 30 30 30
36 37 40 43 45 48 51 53 55 58 60 61 61 61 61 62 61 62 61 59 56 54 52 52 49 47 46 44 42 41 40 38 37 36 35 34 33 32 31 31 31 31 31
33 33 37 41 43 45 49 52 52 55 59 61 62 61 62 63 62 61 61 59 57 55 53 52 50 48 47 46 43 41 40 39 38 37 36 35 34 34 32 32 32 32 31
31 31 34 37 40 44 47 50 52 53 57 59 61 63 62 63 62 62 61 61 58 55 52 51 51 49 47 46 45 43 41 40 38 37 36 36 35 34 33 33 33 32 31
27 29 31 34 38 42 46 48 49 52 56 59 59 61 61 61 63 63 61 59 59 56 52 51 50 48 46 46 44 43 41 40 39 38 37 36 35 35 34 33 32 32 32
25 25 27 32 35 39 44 46 48 51 54 57 59 59 59 60 61 61 60 59 57 56 53 51 49 47 46 45 43 42 42 41 39 38 37 36 35 35 33 33 33 33 33
25 24 26 29 33 36 41 44 47 50 52 54 57 58 58 58 60 60 59 59 58 56 53 50 49 47 46 45 43 42 42 40 38 37 37 36 36 35 34 33 34 34 34
25 25 26 28 31 34 40 43 46 49 51 52 54 56 57 58 60 61 59 59 58 56 55 52 49 47 46 44 43 42 41 39 38 37 36 36 36 35 34 34 34 34 34
24 26 27 27 31 34 37 42 46 47 48 50 52 55 56 56 57 58 58 58 57 57 53 51 49 47 45 44 43 42 41 39 39 38 37 36 36 35 34 34 35 35 35
24 24 27 28 28 33 37 41 44 47 47 48 49 51 52 56 56 55 58 58 57 56 53 49 48 47 45 44 43 42 41 39 38 38 37 36 36 35 34 35 35 35 34
23 24 25 27 29 31 35 40 42 46 49 49 49 48 50 54 55 54 55 55 55 55 53 50 47 46 44 44 43 42 40 39 38 37 36 36 35 35 34 34 34 34 34
23 25 25 26 29 32 35 39 40 44 48 50 49 47 48 50 53 54 53 54 54 53 52 50 48 46 44 44 42 41 40 38 37 37 37 36 35 35 35 34 33 34 34
23 24 25 25 27 32 35 38 39 43 46 49 48 47 49 50 52 53 52 53 53 52 51 49 47 45 44 44 43 41 40 38 37 37 36 36 35 34 34 33 33 34 34
24 24 25 26 27 29 33 36 38 42 45 47 47 47 48 50 52 51 51 51 52 52 51 49 47 43 43 43 43 41 40 38 37 36 35 35 34 33 33 33 33 32 33
25 25 26 27 28 28 30 33 37 40 43 45 47 48 47 48 49 51 50 50 50 50 50 49 47 44 42 41 40 40 39 37 36 35 34 33 33 33 33 32 32 32 33
25 26 27 28 29 30 31 33 35 37 40 44 46 47 46 47 49 50 51 50 50 49 48 47 47 44 41 39 38 39 38 36 35 34 33 33 33 32 32 31 31 32 34
24 26 27 29 29 31 33 35 34 34 38 43 45 46 46 46 48 49 50 51 50 49 48 47 45 43 41 39 39 39 38 37 36 34 33 33 33 32 31 31 32 33 34
24 25 26 28 29 31 33 36 36 35 37 41 46 46 44 45 48 49 50 49 49 48 47 46 43 41 41 41 40 39 39 39 37 35 34 33 31 31 31 32 32 32 32
24 25 26 28 28 30 32 34 35 36 37 40 43 45 44 44 46 47 49 50 49 47 46 45 43 42 41 40 39 38 38 38 36 34 33 32 31 30 31 32 32 31 32
25 25 26 28 29 29 32 33 34 35 36 40 42 43 42 43 45 46 46 47 48 47 46 45 43 41 40 40 39 38 38 37 35 35 34 32 31 31 31 31 31 30 31
25 26 27 29 30 30 31 33 34 35 37 41 42 42 41 43 44 45 45 46 47 47 47 45 44 41 40 40 39 38 37 36 35 34 33 32 32 32 30 30 30 30 32
27 27 28 29 30 30 32 33 34 35 36 40 41 41 41 43 44 45 45 45 46 46 45 43 43 42 40 39 38 38 37 35 34 34 33 33 32 31 30 29 30 30 31
27 28 28 29 29 30 31 33 34 34 35 38 40 41 41 43 44 44 44 45 44 44 43 42 41 40 38 38 38 37 36 35 34 33 32 32 31 30 29 29 29 30 30
26 27 28 29 29 29 30 31 33 35 36 38 40 40 40 42 43 44 44 43 44 44 42 41 39 38 37 37 37 36 35 35 34 33 32 30 29 29 29 29 29 29 30
24 26 27 29 29 28 28 30 32 34 36 38 39 41 39 40 42 43 44 43 42 43 42 40 38 36 34 33 34 35 34 33 32 31 30 28 27 27 29 29 28 28 29
22 24 26 27 27 27 27 29 31 33 35 37 38 39 40 41 42 43 43 42 42 42 42 40 39 37 34 33 33 33 32 30 29 29 29 28 27 27 27 27 27 27 29
Wind_Direction
257 250 245 241 237 233 232 230 228 225 223 221 221 221 223 223 223 223 225 225 227 229 232 233 233 234 236 238 239 242 245 247 249 252 255 258 262 264 266 269 273 277 281
255 250 244 240 237 232 229 227 226 224 222 220 220 220 221 221 221 222 223 225 226 228 231 232 232 234 235 237 239 241 244 246 249 252 255 257 261 264 267 269 272 277 280
256 251 245 239 236 230 227 225 223 223 221 219 218 218 217 218 219 220 221 223 224 226 229 230 231 233 235 237 239 241 244 247 250 253 256 258 260 264 267 269 272 276 279
258 252 246 239 235 230 226 224 223 222 220 218 218 218 217 218 219 220 221 222 223 225 228 230 230 232 234 237 239 241 244 247 250 253 256 258 260 263 266 269 272 275 279
258 252 244 237 233 229 225 222 222 220 219 218 218 219 218 217 217 219 221 221 223 224 227 229 230 232 234 237 239 241 243 246 249 253 256 259 261 263 266 270 272 275 279
257 251 241 236 232 227 223 221 221 219 217 218 218 218 218 217 217 218 220 221 221 223 226 229 230 232 234 236 239 242 244 247 250 252 256 259 261 263 265 268 271 275 279
258 251 242 237 232 228 222 219 219 217 215 216 217 217 218 218 217 218 220 221 221 224 226 228 229 231 233 235 238 241 244 246 250 253 256 258 261 263 264 267 271 275 279
256 248 243 238 231 227 223 219 218 216 214 215 216 216 219 219 217 218 221 222 223 224 226 228 228 229 232 234 237 241 244 246 249 251 255 257 260 262 265 268 271 275 279
256 248 243 238 233 228 225 221 217 214 215 215 216 217 218 219 219 219 220 222 223 224 226 228 228 230 231 233 237 240 243 245 247 251 254 257 260 263 266 270 273 276 280
258 250 242 237 234 230 225 220 216 215 214 215 216 216 217 218 219 219 220 221 223 225 226 228 230 231 232 234 236 239 242 245 247 251 253 256 260 263 267 271 275 278 282
261 252 245 237 234 230 222 218 216 215 214 216 216 216 217 218 219 220 220 222 224 225 225 228 231 232 233 235 237 239 242 244 247 249 252 256 259 263 267 272 276 279 283
263 253 246 239 234 230 223 218 218 216 214 215 215 215 217 219 219 220 221 222 224 225 226 228 230 232 234 235 237 239 241 244 246 248 252 256 261 265 268 272 276 279 283
265 256 247 241 235 231 226 221 220 218 216 215 215 216 217 219 220 220 221 223 224 225 226 228 230 233 234 236 238 239 241 244 246 249 253 258 261 266 268 271 276 279 283
266 257 251 244 238 231 226 223 221 218 217 216 216 216 217 218 219 220 220 222 223 225 225 228 229 232 234 236 238 239 241 244 247 250 254 257 261 265 269 272 276 279 284
262 257 251 244 237 231 227 224 220 219 219 219 218 217 217 217 218 218 219 221 223 224 225 228 229 231 234 235 237 238 240 244 248 249 252 256 261 265 269 272 275 279 284
261 255 249 241 237 233 230 225 221 220 221 220 219 219 219 217 217 219 221 223 223 222 225 226 228 230 232 234 235 237 239 243 247 249 253 258 261 264 268 271 275 280 286
259 254 248 241 238 234 232 228 224 222 222 221 220 220 219 218 217 218 221 222 222 223 224 225 226 228 230 232 234 237 240 244 247 249 253 257 260 263 267 272 277 282 287
257 253 248 242 238 234 231 228 226 225 224 221 221 221 220 220 220 219 220 220 220 221 222 224 225 227 230 232 234 236 240 244 246 250 253 257 261 265 270 274 278 282 287
257 252 246 242 239 235 230 228 226 225 223 220 220 220 221 221 221 220 220 220 220 223 223 222 225 229 231 232 234 235 239 242 245 249 252 255 261 265 270 274 277 281 285
257 251 246 242 241 238 234 231 228 225 221 218 219 219 220 219 219 218 219 219 221 223 224 224 225 229 230 231 233 235 238 241 245 248 252 256 260 265 270 273 277 280 285
259 252 246 244 242 239 237 233 230 227 223 219 218 219 218 217 217 217 219 219 221 223 224 225 225 228 230 231 232 234 238 241 245 248 252 256 259 264 268 271 275 280 285
260 254 248 246 243 240 238 233 232 228 224 221 219 218 217 215 213 215 217 218 220 223 224 225 226 228 230 231 233 234 238 241 245 248 252 256 259 263 267 271 277 282 286
260 254 250 247 243 241 238 235 232 228 224 220 218 216 214 213 213 214 215 217 217 219 221 224 227 228 229 230 231 233 238 240 243 248 252 254 258 262 267 273 279 284 287
260 254 250 248 245 243 238 234 230 227 224 221 218 215 214 214 215 215 216 218 218 219 219 221 223 225 227 228 228 232 236 240 243 245 248 251 257 261 267 272 279 283 287
261 254 250 249 247 243 238 232 228 225 222 219 217 216 214 214 214 215 216 216 218 218 219 219 221 222 224 226 228 231 234 237 240 242 245 250 256 262 267 273 278 283 287
262 255 252 249 245 240 234 230 226 223 220 217 216 217 217 215 214 215 215 215 217 217 218 220 220 221 224 225 226 228 228 231 235 240 246 252 257 263 269 272 277 283 287
Height
5574 5577 5582 5587 5593 5600 5607 5615 5623 5632 5641 5651 5661 5671 5680 5691 5701 5710 5718 5726 5734 5741 5748 5754 5760 5766 5771 5775 5780 5784 5788 5791 5794 5797 5799 5800 5802 5803 5804 5804 5804 5804 5803
5564 5567 5571 5576 5581 5588 5595 5603 5611 5620 5629 5639 5649 5659 5669 5679 5689 5698 5707 5716 5725 5732 5738 5745 5751 5757 5763 5767 5772 5777 5781 5784 5787 5790 5792 5794 5796 5797 5797 5798 5798 5798 5797
5556 5559 5562 5567 5571 5577 5584 5591 5600 5607 5617 5627 5637 5647 5657 5667 5677 5687 5696 5706 5715 5723 5729 5736 5743 5749 5755 5760 5765 5769 5774 5777 5780 5783 5786 5787 5789 5790 5791 5791 5792 5791 5790
5548 5550 5553 5557 5562 5567 5574 5582 5590 5597 5606 5616 5626 5637 5647 5657 5669 5678 5687 5696 5705 5713 5720 5727 5734 5740 5746 5752 5757 5762 5766 5770 5773 5776 5778 5781 5782 5783 5784 5785 5785 5784 5784
5542 5543 5546 5549 5553 5559 5565 5573 5580 5588 5597 5607 5616 5627 5636 5648 5659 5668 5677 5687 5696 5704 5711 5718 5726 5732 5738 5744 5749 5754 5758 5762 5765 5768 5771 5773 5775 5776 5777 5778 5778 5778 5777
5536 5537 5539 5542 5546 5551 5557 5564 5571 5579 5588 5597 5607 5618 5628 5638 5648 5658 5668 5677 5686 5694 5703 5710 5717 5724 5730 5736 5741 5746 5750 5754 5758 5761 5763 5765 5767 5769 5770 5771 5771 5770 5770
5530 5531 5534 5537 5540 5545 5550 5556 5563 5572 5580 5589 5599 5609 5618 5628 5638 5649 5659 5668 5677 5685 5694 5702 5709 5716 5722 5727 5733 5738 5742 5746 5750 5753 5756 5758 5760 5761 5763 5763 5763 5763 5763
5525 5526 5528 5531 5534 5538 5543 5549 5556 5564 5572 5581 5591 5600 5610 5619 5629 5640 5650 5660 5669 5678 5685 5693 5700 5707 5713 5719 5725 5730 5734 5739 5742 5745 5748 5750 5752 5754 5755 5756 5757 5756 5756
5521 5522 5524 5525 5528 5532 5537 5542 5549 5557 5566 5574 5583 5592 5602 5611 5621 5632 5641 5651 5660 5669 5676 5685 5692 5699 5705 5711 5717 5722 5726 5731 5735 5738 5741 5743 5745 5746 5747 5748 5749 5749 5749
5516 5517 5519 5520 5523 5526 5531 5537 5543 5551 5559 5567 5576 5585 5594 5604 5613 5623 5633 5642 5651 5660 5669 5676 5684 5691 5697 5703 5709 5714 5718 5723 5727 5730 5733 5735 5737 5739 5740 5741 5741 5741 5741
5511 5512 5514 5516 5518 5521 5525 5531 5537 5545 5553 5561 5570 5578 5587 5596 5605 5615 5625 5634 5643 5652 5660 5668 5676 5683 5689 5695 5700 5706 5711 5715 5719 5722 5725 5728 5730 5731 5732 5733 5734 5734 5733
5507 5507 5509 5511 5513 5516 5520 5525 5532 5539 5547 5554 5562 5570 5579 5588 5597 5607 5616 5626 5634 5642 5651 5660 5668 5675 5681 5686 5692 5698 5703 5707 5711 5715 5718 5720 5722 5724 5725 5726 5726 5726 5725
5502 5503 5504 5506 5508 5511 5515 5520 5526 5533 5540 5548 5555 5563 5571 5580 5590 5599 5608 5617 5625 5634 5643 5652 5659 5666 5673 5678 5684 5690 5695 5700 5704 5707 5710 5712 5714 5716 5717 5718 5718 5718 5717
5497 5498 5499 5501 5503 5506 5511 5515 5520 5527 5534 5541 5548 5556 5564 5573 5582 5591 5600 5608 5617 5625 5635 5643 5651 5658 5664 5670 5676 5682 5687 5692 5696 5699 5702 5705 5707 5708 5709 5710 5710 5710 5709
5491 5492 5493 5495 5498 5501 5505 5509 5514 5520 5527 5534 5541 5549 5557 5565 5574 5583 5592 5600 5608 5617 5626 5634 5642 5649 5656 5662 5668 5674 5680 5684 5688 5691 5694 5697 5699 5700 5701 5702 5703 5702 5702
5485 5486 5487 5490 5492 5496 5499 5504 5509 5514 5521 5527 5535 5542 5550 5558 5566 5575 5584 5592 5600 5609 5618 5626 5634 5641 5648 5655 5661 5667 5672 5676 5680 5683 5687 5689 5691 5692 5693 5694 5695 5695 5694
5479 5479 5481 5484 5486 5490 5494 5498 5502 5508 5514 5520 5527 5535 5542 5550 5559 5567 5576 5584 5593 5601 5609 5617 5625 5633 5640 5647 5653 5658 5664 5668 5672 5676 5679 5681 5683 5684 5686 5686 5687 5687 5686
5472 5473 5475 5477 5480 5483 5487 5491 5496 5501 5507 5513 5520 5528 5535 5543 5550 5559 5567 5576 5585 5593 5601 5610 5618 5625 5632 5638 5644 5650 5655 5660 5664 5668 5671 5674 5675 5677 5678 5679 5679 5679 5678
5466 5467 5468 5471 5474 5477 5480 5484 5489 5495 5500 5506 5512 5520 5528 5535 5543 5551 5560 5569 5577 5585 5594 5602 5610 5617 5624 5630 5636 5642 5647 5652 5657 5660 5663 5666 5668 5669 5670 5671 5671 5671 5670
5459 5460 5462 5465 5467 5470 5473 5478 5482 5487 5492 5498 5505 5513 5520 5527 5535 5544 5552 5561 5569 5578 5586 5594 5602 5609 5616 5622 5628 5634 5639 5644 5649 5652 5656 5659 5660 5662 5662 5663 5664 5663 5662
5452 5453 5455 5458 5460 5463 5466 5471 5475 5480 5485 5491 5498 5505 5512 5520 5528 5536 5545 5553 5562 5571 5579 5587 5595 5602 5608 5614 5620 5626 5631 5636 5641 5644 5648 5650 5652 5654 5655 5656 5656 5655 5654
5444 5445 5447 5450 5453 5456 5459 5463 5468 5472 5477 5483 5491 5498 5505 5513 5521 5529 5537 5546 5554 5563 5571 5578 5586 5593 5600 5606 5612 5618 5623 5628 5633 5637 5640 5642 5645 5647 5648 5648 5648 5647 5646
5436 5437 5439 5442 5445 5448 5451 5455 5460 5464 5469 5476 5483 5490 5498 5505 5513 5521 5530 5538 5547 5555 5563 5571 5578 5586 5592 5598 5604 5610 5615 5620 5625 5629 5632 5634 5636 5639 5640 5641 5640 5640 5639
5428 5429 5431 5434 5437 5440 5443 5447 5451 5456 5462 5469 5476 5483 5490 5497 5506 5514 5522 5531 5539 5548 5556 5563 5570 5578 5584 5590 5596 5602 5607 5612 5616 5620 5624 5626 5628 5631 5632 5633 5633 5632 5631
5420 5421 5423 5426 5429 5432 5435 5439 5443 5448 5455 5461 5469 5476 5483 5490 5499 5507 5516 5524 5533 5541 5549 5556 5564 5571 5577 5584 5590 5595 5600 5604 5609 5613 5616 5618 5621 5623 5625 5626 5625 5625 5624
5413 5414 5416 5419 5422 5425 5428 5432 5436 5441 5448 5455 5462 5469 5476 5484 5492 5500 5508 5517 5526 5533 5541 5549 5557 5564 5570 5576 5582 5587 5592 5596 5601 5605 5608 5611 5614 5616 5618 5618 5618 5617 5616